Terminal Aerodrome Forecast
Issued by NWS

Home | Current Version | Previous Version | Text Only | Print | Product List | Glossary On
Versions: 1 2 3 4 5 6 7 8 9 10 11 12 13
000
FTUS42 KMLB 291129
TAFLEE
TAF
KLEE 291129Z 2912/3012 VRB04KT P6SM FEW025 SCT250
     FM291900 13006KT P6SM VCTS SCT035CB BKN080
      TEMPO 2920/2923 3SM TSRA BKN030CB BKN050
     FM300100 10006KT P6SM SCT040 OVC100=

USA.gov is the U.S. government's official web portal to all federal, state and local government web resources and services.